STARLINK-1513, 45786

Orbit data source: Space-Track

STARLINK-1513, 45786 is a payload satellite owned by SpaceX/Seattle (US) in LEO that was launched on Sat, 13 Jun 2020 UTC via an FALCON 9 launch vehicle from the Air Force Eastern Test Range (AFETR). Payload-class satellites include a variety of spacecraft equipped with specific instruments for various scientific and technological missions. These include communications satellites like Starlink; space stations such as the ISS; scientific satellites like the Hubble; Earth observation satellites from companies like Planet Labs, Umbra, and HawkEye 360; GPS; miniature CubeSats for education and research; and military/defense satellites.

Loading next visibility...
Identifier
45786, 2020-038BJ
Orbit
LEO
Country
Flag of USUS
Related business
Manufacturer
SpaceX/Seattle
Mission
Operational Commercial Communications
Bus & Motor
STARLINK, Unknown motor
Mass
260 kg wet, ~248 kg dry
Launch date (UTC)
2020-06-13 (6 years ago)
Launch vehicle
FALCON 9
Launch site
Air Force Eastern Test Range (AFETR)
Object type
Payload
Rocket body
Debris
Shape & HBR
Box + 1 Pan, 10.1 m
Radar Cross Section
13.562 m², Large (>1 m²)

Expand to show TLE details & history
Last TLE update: 14 hours ago

TLE from 14 hours ago
0 STARLINK-1513
1 45786U 20038BJ  26123.73256438 -.00001436  00000-0 -34511-4 0  9999
2 45786  53.1593 295.2856 0001091  86.9668 273.1458 15.31694930325279
Epoch: 2026-05-03T17:34Z
TLE epoch observation values (Epoch: 2026-05-03T17:34:53.562Z)
Latitude
-0.00004°
Longitude
169.93051°
Altitude
471.614 km
Speed
7.631 km/s
True Right ascension
19h 41m 08s
True Declination
0° 00' 00"
Sunlit
Object was in daylight at epoch
Visualization orbit readout
Latitude
Unknown
Longitude
Unknown
Altitude
Unknown
Speed
Unknown
Apparent Right ascension
Unknown
Apparent Declination
Unknown
Sunlit
N/A
Visualization observer readout
Local Sidereal Time
15:04:04
Azimuth
Unknown
Elevation
Unknown
Doppler factor
Unknown
Orbital elements
Apogee altitude
471.759 km
Perigee altitude
470.265 km
Semi-major axis
6,849.149 km
Eccentricity
0.00011
Inclination
53.1593°
RAAN
295.2856°
Arg. of periapsis
86.9668°
True anomaly
273.13332°
Mean anomaly
273.1458°
Eccentric anomaly
273.13956°
Mean motion
3.82903 °/min
Orbital period
94.02 mins
BSTAR
-0.000034511
Loading maneuver chart data...
Computing Atmospheric mass density...

Documentation

Showing up to 5 results
|